Regional Weather Roundup
Issued by NWS

Home | Current Version | Previous Version | Graphics & Text | Print | Product List | Glossary On
Versions: 1 2 3 4 5 6 7 8 9 10 11 12 13 14 15 16 17 18 19 20 21 22 23 24 25 26 27 28 29 30 31 32 33 34 35 36 37 38 39 40 41 42 43 44 45 46 47 48 49 50
000
ASUS44 KMEG 251010
RWRTN
TENNESSEE HOURLY STATE WEATHER ROUNDUP
NATIONAL WEATHER SERVICE MEMPHIS TN
500 AM CDT SAT MAR 25 2017

TNZ002-004-019-021-049-052-054-088>092-251100-
WEST TENNESSEE

CITY           SKY/WX    TMP DP  RH WIND       PRES   REMARKS
MEMPHIS INTL   RAIN      61  57  87 CALM      29.92F FOG
NWS MEMPHIS      N/A     62 N/A N/A MISG        N/A
JACKSON        PTCLDY    68  51  54 S13G23    29.97F
DYERSBURG      LGT RAIN  56  55  97 E5        29.98F
SOMERVILLE     CLOUDY    66  57  72 S9G17     29.94F
BOLIVAR        CLOUDY    66  52  59 SE13G20   29.97F
PARIS          MOCLDY    63  52  67 S14G24    30.00R
HUNTINGDON     CLOUDY    66  54  63 S13G23    29.98R
SAVANNAH       CLOUDY    66  52  59 S12G20    30.02F
$$

TNZ008-025-027-028-033-062-065-066-251100-
NORTH MIDDLE TENNESSEE

CITY           SKY/WX    TMP DP  RH WIND       PRES   REMARKS
NASHVILLE      CLOUDY    66  51  58 S16G22    30.07F
PORTLAND       PTCLDY    64  50  59 S22G28    30.06F
CLARKSVILLE    CLOUDY    66  53  63 S16G26    30.02S
SMYRNA         MOCLDY    65  51  60 S13       30.09F
COOKEVILLE     PTCLDY    63  48  59 S9        30.13S
GALLATIN       PTCLDY    64  50  59 S8        30.11S
CROSSVILLE     MOCLDY    59  46  62 S14G25    30.19S
$$

TNZ061-075-076-078-094-096-097-251100-
SOUTH MIDDLE TENNESSEE

CITY           SKY/WX    TMP DP  RH WIND       PRES   REMARKS
FAYETTEVILLE   CLOUDY    63  52  67 S13       30.14S
TULLAHOMA      CLEAR     63  46  55 S8        30.15R
MCMINNVILLE    CLEAR     64  48  55 S8        30.13S
COLUMBIA       CLEAR     64  57  77 S13       30.06F
SHELBYVILLE    CLEAR     66  52  59 S12       30.12F
$$

TNZ017-018-042-046-047-251100-
NORTHEAST TENNESSEE

CITY           SKY/WX    TMP DP  RH WIND       PRES   REMARKS
TRI CITIES     CLOUDY    54  46  74 CALM      30.24R
ELIZABETHTON   MOCLDY    54  46  76 CALM      30.24R
$$

TNZ012-013-036-069-073-074-251100-
CENTRAL EAST TENNESSEE

CITY           SKY/WX    TMP DP  RH WIND       PRES   REMARKS
KNOXVILLE      MOCLDY    57  46  66 CALM      30.21R
OAK RIDGE      MOCLDY    58  46  64 CALM      30.23R
DOWNTOWN KNOXV CLOUDY    52  48  87 CALM      30.22R
GATLINBURG     CLEAR     54  46  76 CALM      30.22R
MORRISTOWN     CLOUDY    55  48  76 CALM      30.21R
JACKSBORO      MOCLDY    59  46  63 S7        30.23R
$$

TNZ083-085-099-251100-
SOUTHEAST TENNESSEE

CITY           SKY/WX    TMP DP  RH WIND       PRES   REMARKS
CHATTANOOGA    CLOUDY    63  48  58 S7        30.22R
$$

SKY/WX REPORTED AS FAIR MEANS FEW OR NO CLOUDS BELOW
12 THOUSAND FEET.





USA.gov is the U.S. government's official web portal to all federal, state and local government web resources and services.